Date String (YYYY-MM-DD hh:mm:ss) UTC,Instrument flags,Ambient pressure (hPa),Sample flow (lpm),Bypass flow (lpm),Sample temperature (°C),Ambient temperature (°C),ASC tube jacket temperature (°C),LED temperature (°C),Box temperature (°C),Sample RH (%),Span deviation,Mass concentration (μg/m³),Mass concentration (μg/m³),Mass concentration (μg/m³)
DateTimeUTC,F1_M11,P_M11,Q1_M11,Q2_M11,T1_M11,T2_M11,T3_M11,T4_M11,T5_M11,U1_M11,ZSPAN_M11,X2_M11,X0_M11,X1_M11
2022-07-18 03:00:00,,0828.0,5.00,0.00,29.4,28.2,00.0,38.0,31.4,27.1,0000.0,0005.40,0012.58,0004.47
2022-07-18 03:01:00,,0828.0,5.01,0.00,29.4,28.2,00.0,38.0,31.4,27.0,0000.0,0005.34,0011.73,0004.45
2022-07-18 03:02:00,,0828.0,5.00,0.00,29.4,27.6,00.0,38.0,31.4,27.0,0000.0,0005.31,0011.10,0004.45
2022-07-18 03:03:00,,0828.1,5.02,0.00,29.4,27.1,00.0,37.9,31.3,27.0,0000.0,0005.32,0011.17,0004.44
2022-07-18 03:04:00,,0828.1,5.00,0.00,29.4,27.0,00.0,37.9,31.1,27.1,0000.0,0005.34,0011.17,0004.43
2022-07-18 03:05:00,,0828.1,5.00,0.00,29.3,27.1,00.0,38.0,31.0,27.2,0000.0,0005.34,0011.21,0004.42
2022-07-18 03:06:00,,0828.1,5.00,0.00,29.3,27.3,00.0,38.0,31.0,27.3,0000.0,0005.32,0011.37,0004.42
2022-07-18 03:07:00,,0828.1,5.00,0.00,29.3,27.5,00.0,38.0,31.1,27.3,0000.0,0005.34,0011.31,0004.42
2022-07-18 03:08:00,,0828.1,4.99,0.00,29.3,27.7,00.0,38.0,31.2,27.2,0000.0,0005.30,0010.73,0004.41
2022-07-18 03:09:00,,0828.2,5.01,0.00,29.3,27.9,00.0,38.0,31.2,27.2,0000.0,0005.24,0010.13,0004.39
2022-07-18 03:10:00,,0828.2,4.99,0.00,29.4,28.1,00.0,38.0,31.3,27.1,0000.0,0005.23,0010.10,0004.38
2022-07-18 03:11:00,,0828.2,5.00,0.00,29.4,28.3,00.0,38.0,31.4,27.1,0000.0,0005.23,0010.40,0004.36
2022-07-18 03:12:00,,0828.2,5.00,0.00,29.4,28.0,00.0,38.0,31.4,27.0,0000.0,0005.25,0010.59,0004.35
2022-07-18 03:13:00,,0828.2,5.01,0.00,29.4,27.3,00.0,38.0,31.3,27.0,0000.0,0005.26,0010.80,0004.33
2022-07-18 03:14:00,,0828.2,5.01,0.00,29.4,27.0,00.0,37.9,31.2,27.0,0000.0,0005.17,0011.24,0004.32
2022-07-18 03:15:00,,0828.3,5.00,0.00,29.3,27.0,00.0,37.9,31.1,27.1,0000.0,0005.12,0011.68,0004.30
2022-07-18 03:16:00,,0828.2,5.00,0.00,29.3,27.1,00.0,37.9,31.0,27.2,0000.0,0005.09,0011.54,0004.29
2022-07-18 03:17:00,,0828.2,5.00,0.00,29.3,27.3,00.0,38.0,31.1,27.2,0000.0,0005.07,0011.31,0004.27
2022-07-18 03:18:00,,0828.2,5.01,0.00,29.3,27.6,00.0,38.0,31.1,27.2,0000.0,0005.02,0011.25,0004.25
2022-07-18 03:19:00,,0828.2,5.00,0.00,29.3,27.8,00.0,38.0,31.2,27.1,0000.0,0005.01,0011.12,0004.24
2022-07-18 03:20:00,,0828.2,5.01,0.00,29.3,28.0,00.0,38.0,31.3,27.1,0000.0,0005.05,0010.98,0004.23
2022-07-18 03:21:00,,0828.2,5.00,0.00,29.4,28.2,00.0,38.0,31.4,27.0,0000.0,0005.00,0011.07,0004.22
2022-07-18 03:22:00,,0828.2,4.99,0.00,29.4,28.3,00.0,38.0,31.4,27.0,0000.0,0004.97,0010.71,0004.21
2022-07-18 03:23:00,,0828.2,5.00,0.00,29.4,27.8,00.0,38.0,31.4,26.9,0000.0,0004.95,0011.32,0004.20
2022-07-18 03:24:00,,0828.4,5.01,0.00,29.4,27.1,00.0,37.9,31.3,26.9,0000.0,0004.96,0011.33,0004.18
2022-07-18 03:25:00,,0828.3,5.00,0.00,29.4,26.9,00.0,37.9,31.2,26.9,0000.0,0005.02,0010.83,0004.16
2022-07-18 03:26:00,,0828.2,4.99,0.00,29.3,27.0,00.0,37.9,31.1,27.1,0000.0,0005.09,0010.46,0004.16
2022-07-18 03:27:00,,0828.4,5.00,0.00,29.3,27.2,00.0,38.0,31.0,27.2,0000.0,0005.08,0010.96,0004.15
2022-07-18 03:28:00,,0828.2,5.00,0.00,29.3,27.4,00.0,38.0,31.1,27.2,0000.0,0005.07,0011.59,0004.15
2022-07-18 03:29:00,,0828.2,5.00,0.00,29.3,27.6,00.0,38.0,31.1,27.3,0000.0,0005.06,0012.27,0004.14
2022-07-18 03:30:00,,0828.3,5.00,0.00,29.3,27.8,00.0,38.0,31.2,27.2,0000.0,0005.07,0012.34,0004.16
2022-07-18 03:31:00,,0828.3,4.99,0.00,29.3,28.0,00.0,38.0,31.3,27.2,0000.0,0005.06,0012.25,0004.15
2022-07-18 03:32:00,,0828.3,5.00,0.00,29.4,28.2,00.0,38.0,31.4,27.2,0000.0,0005.09,0012.62,0004.15
2022-07-18 03:33:00,,0828.3,5.00,0.00,29.4,28.4,00.0,38.1,31.4,27.2,0000.0,0005.09,0012.85,0004.14
2022-07-18 03:34:00,,0828.3,5.00,0.00,29.5,28.0,00.0,38.0,31.4,27.1,0000.0,0005.08,0012.24,0004.13
2022-07-18 03:35:00,,0828.3,5.01,0.00,29.4,27.3,00.0,38.0,31.3,27.0,0000.0,0005.04,0011.96,0004.14
2022-07-18 03:36:00,,0828.3,4.99,0.00,29.4,27.0,00.0,38.0,31.2,27.1,0000.0,0005.02,0011.94,0004.14
2022-07-18 03:37:00,,0828.4,4.99,0.00,29.3,27.0,00.0,38.0,31.1,27.3,0000.0,0004.99,0012.13,0004.14
2022-07-18 03:38:00,,0828.3,5.00,0.00,29.3,27.2,00.0,38.0,31.1,27.4,0000.0,0004.99,0012.24,0004.14
2022-07-18 03:39:00,,0828.3,5.01,0.00,29.3,27.4,00.0,38.0,31.1,27.5,0000.0,0004.98,0011.81,0004.13
2022-07-18 03:40:00,,0828.3,5.00,0.00,29.3,27.6,00.0,38.0,31.1,27.6,0000.0,0005.00,0011.31,0004.14
2022-07-18 03:41:00,,0828.5,4.99,0.00,29.3,27.8,00.0,38.0,31.2,27.5,0000.0,0005.04,0011.34,0004.14
2022-07-18 03:42:00,,0828.4,5.00,0.00,29.4,28.0,00.0,38.0,31.3,27.5,0000.0,0005.08,0011.49,0004.14
2022-07-18 03:43:00,,0828.4,5.01,0.00,29.4,28.2,00.0,38.1,31.4,27.5,0000.0,0005.07,0010.93,0004.14
2022-07-18 03:44:00,,0828.4,5.00,0.00,29.4,28.3,00.0,38.1,31.4,27.4,0000.0,0005.06,0010.79,0004.14
2022-07-18 03:45:00,,0828.4,4.99,0.00,29.5,28.1,00.0,38.1,31.4,27.4,0000.0,0005.03,0010.96,0004.15
2022-07-18 03:46:00,,0828.4,5.01,0.00,29.5,27.4,00.0,38.0,31.3,27.5,0000.0,0005.04,0010.96,0004.16
2022-07-18 03:47:00,,0828.4,5.00,0.00,29.4,27.0,00.0,38.0,31.3,27.5,0000.0,0005.05,0010.95,0004.18
2022-07-18 03:48:00,,0828.4,4.99,0.00,29.4,27.0,00.0,38.0,31.1,27.6,0000.0,0005.02,0011.73,0004.21
2022-07-18 03:49:00,,0828.4,5.00,0.00,29.3,27.1,00.0,38.0,31.1,27.7,0000.0,0005.05,0011.13,0004.24
2022-07-18 03:50:00,,0828.4,5.00,0.00,29.3,27.3,00.0,38.0,31.1,27.8,0000.0,0005.10,0011.14,0004.27
2022-07-18 03:51:00,,0828.5,5.00,0.00,29.3,27.5,00.0,38.0,31.1,27.8,0000.0,0005.12,0010.94,0004.30
2022-07-18 03:52:00,,0828.5,5.00,0.00,29.3,27.7,00.0,38.0,31.2,27.9,0000.0,0005.11,0011.05,0004.33
2022-07-18 03:53:00,,0828.5,4.99,0.00,29.3,28.0,00.0,38.0,31.3,27.8,0000.0,0005.11,0010.87,0004.37
2022-07-18 03:54:00,,0828.5,5.01,0.00,29.4,28.1,00.0,38.1,31.4,27.8,0000.0,0005.14,0010.93,0004.41
2022-07-18 03:55:00,,0828.5,4.99,0.00,29.4,28.3,00.0,38.1,31.4,27.7,0000.0,0005.19,0011.30,0004.46
2022-07-18 03:56:00,,0828.4,5.01,0.00,29.5,28.2,00.0,38.1,31.5,27.6,0000.0,0005.24,0011.10,0004.49
2022-07-18 03:57:00,,0828.4,5.00,0.00,29.5,27.5,00.0,38.0,31.4,27.7,0000.0,0005.29,0011.16,0004.52
2022-07-18 03:58:00,,0828.4,4.99,0.00,29.4,27.0,00.0,38.0,31.3,27.8,0000.0,0005.33,0011.18,0004.54
2022-07-18 03:59:00,,0828.5,5.01,0.00,29.4,27.0,00.0,38.0,31.2,27.8,0000.0,0005.36,0010.29,0004.55
